Weather History for KMWM - August, 2012

Change the Weather History Date:

Wednesday, August 29, 2012

  Actual Average Record
Temperature  
Mean Temperature 78 °F -  
Max Temperature 91 °F 81 °F 96 °F (1984)
Min Temperature 66 °F 58 °F 43 °F (1988)
Cooling Degree Days 14    
Growing Degree Days 28 (Base 50)    
Moisture  
Dew Point 59 °F    
Average Humidity 53    
Maximum Humidity 83    
Minimum Humidity 29    
Precipitation  
Precipitation 0.00 in - - ()
Sea Level Pressure  
Sea Level Pressure 29.86 in    
Wind  
Wind Speed 7 mph (South)    
Max Wind Speed 13 mph    
Max Gust Speed -    
Visibility 10 miles    
Events      
Averages and records for this station are not official NWS values.
T = Trace of Precipitation, MM = Missing Value Source: NWS Daily Summary

Daily Weather History Graph

Daily Weather History Graph

Search for Another Location

Airport or City:

Trip Planner

Search our weather history database for the weather conditions in past years. The results will help you decide how hot, cold, wet, or windy it might be!

Date:

Astronomy

Aug. 29, 2012 Rise Set
Actual Time 6:40 AM CDT 8:00 PM CDT
Civil Twilight 6:11 AM CDT 8:30 PM CDT
Nautical Twilight 5:35 AM CDT 9:06 PM CDT
Astronomical Twilight 4:56 AM CDT 9:44 PM CDT
Moon 6:42 PM CDT (8/29) 4:35 AM CDT (8/29)
Length of Visible Light 14h 19m
Length of Day
13h 19m
Waxing Gibbous, 96% of the Moon is Illuminated
Aug 29
Waxing Gibbous
Aug 31
Full
Sep 8
Last Quarter
Sep 15
New
Sep 22
First Quarter

Hourly Weather History & Observations

Time (CDT) Temp. Heat Index Dew Point Humidity Pressure Visibility Wind Dir Wind Speed Gust Speed Precip Events Conditions
12:12 AM 73.4 °F - 60.8 °F 65% 29.93 in 10.0 mi SSE 9.2 mph - N/A   Clear
12:33 AM 73.4 °F - 60.8 °F 65% 29.93 in 10.0 mi SSE 9.2 mph - N/A   Clear
12:52 AM 73.4 °F - 60.8 °F 65% 29.93 in 10.0 mi SSE 8.1 mph - N/A   Clear
1:12 AM 71.6 °F - 60.8 °F 69% 29.93 in 10.0 mi SE 5.8 mph - N/A   Clear
1:32 AM 71.6 °F - 60.8 °F 69% 29.92 in 10.0 mi SSE 6.9 mph - N/A   Clear
1:52 AM 71.6 °F - 60.8 °F 69% 29.92 in 10.0 mi SE 5.8 mph - N/A   Clear
2:13 AM 71.6 °F - 60.8 °F 69% 29.91 in 10.0 mi SE 5.8 mph - N/A   Clear
2:52 AM 69.8 °F - 60.8 °F 73% 29.90 in 10.0 mi ESE 3.5 mph - N/A   Clear
3:13 AM 66.2 °F - 60.8 °F 83% 29.90 in 10.0 mi ESE 3.5 mph - N/A   Clear
3:52 AM 69.8 °F - 60.8 °F 73% 29.89 in 10.0 mi Calm Calm - N/A   Clear
4:13 AM 69.8 °F - 60.8 °F 73% 29.89 in 10.0 mi South 5.8 mph - N/A   Clear
4:32 AM 69.8 °F - 60.8 °F 73% 29.89 in 10.0 mi South 5.8 mph - N/A   Clear
4:52 AM 69.8 °F - 60.8 °F 73% 29.88 in 10.0 mi South 5.8 mph - N/A   Clear
5:13 AM 69.8 °F - 60.8 °F 73% 29.88 in 10.0 mi SSW 5.8 mph - N/A   Clear
5:32 AM 68.0 °F - 60.8 °F 78% 29.88 in 10.0 mi South 4.6 mph - N/A   Clear
5:52 AM 68.0 °F - 60.8 °F 78% 29.88 in 10.0 mi South 3.5 mph - N/A   Clear
6:13 AM 66.2 °F - 60.8 °F 83% 29.88 in 10.0 mi South 4.6 mph - N/A   Clear
6:32 AM 66.2 °F - 60.8 °F 83% 29.88 in 10.0 mi SSW 3.5 mph - N/A   Clear
6:52 AM 66.2 °F - 59.0 °F 78% 29.88 in 10.0 mi SSW 4.6 mph - N/A   Clear
7:13 AM 66.2 °F - 60.8 °F 83% 29.88 in 10.0 mi South 3.5 mph - N/A   Clear
7:32 AM 66.2 °F - 60.8 °F 83% 29.89 in 10.0 mi SSW 3.5 mph - N/A   Clear
7:53 AM 68.0 °F - 60.8 °F 78% 29.89 in 10.0 mi SSW 4.6 mph - N/A   Clear
8:12 AM 69.8 °F - 60.8 °F 73% 29.89 in 10.0 mi Calm Calm - N/A   Clear
8:33 AM 71.6 °F - 60.8 °F 69% 29.89 in 10.0 mi Calm Calm - N/A   Clear
8:53 AM 73.4 °F - 59.0 °F 61% 29.89 in 10.0 mi SSW 4.6 mph - N/A   Clear
9:12 AM 75.2 °F - 59.0 °F 57% 29.88 in 10.0 mi SSW 5.8 mph - N/A   Clear
9:32 AM 75.2 °F - 59.0 °F 57% 29.88 in 10.0 mi SSW 8.1 mph - N/A   Clear
9:53 AM 77.0 °F - 59.0 °F 54% 29.88 in 10.0 mi WSW 8.1 mph - N/A   Clear
10:12 AM 78.8 °F - 59.0 °F 51% 29.89 in 10.0 mi SW 4.6 mph - N/A   Clear
10:32 AM 78.8 °F - 59.0 °F 51% 29.89 in 10.0 mi SSW 6.9 mph - N/A   Clear
10:53 AM 80.6 °F 81.1 °F 59.0 °F 48% 29.89 in 10.0 mi SSW 5.8 mph - N/A   Clear
11:12 AM 82.4 °F 82.5 °F 59.0 °F 45% 29.89 in 10.0 mi South 8.1 mph - N/A   Clear
11:32 AM 84.2 °F 83.8 °F 59.0 °F 42% 29.88 in 10.0 mi South 8.1 mph - N/A   Clear
11:53 AM 84.2 °F 83.5 °F 57.2 °F 40% 29.88 in 10.0 mi SSW 5.8 mph - N/A   Clear
12:12 PM 86.0 °F 84.9 °F 57.2 °F 37% 29.88 in 10.0 mi South 4.6 mph - N/A   Clear
12:32 PM 87.8 °F 86.5 °F 57.2 °F 35% 29.87 in 10.0 mi SE 4.6 mph - N/A   Clear
12:52 PM 87.8 °F 86.1 °F 55.4 °F 33% 29.87 in 10.0 mi South 4.6 mph - N/A   Clear
1:12 PM 89.6 °F 88.1 °F 57.2 °F 33% 29.86 in 10.0 mi SSE 6.9 mph - N/A   Clear
1:33 PM 89.6 °F 88.1 °F 57.2 °F 33% 29.85 in 10.0 mi SSE 6.9 mph - N/A   Clear
1:52 PM 89.6 °F 88.1 °F 57.2 °F 33% 29.84 in 10.0 mi South 8.1 mph - N/A   Clear
2:12 PM 91.4 °F 89.9 °F 57.2 °F 31% 29.84 in 10.0 mi SSE 10.4 mph - N/A   Clear
2:33 PM 89.6 °F 88.1 °F 57.2 °F 33% 29.84 in 10.0 mi SSE 11.5 mph - N/A   Clear
2:52 PM 91.4 °F 89.9 °F 57.2 °F 31% 29.83 in 10.0 mi South 8.1 mph - N/A   Clear
3:12 PM 91.4 °F 89.9 °F 57.2 °F 31% 29.82 in 10.0 mi SSE 11.5 mph - N/A   Clear
3:33 PM 91.4 °F 90.7 °F 59.0 °F 34% 29.82 in 10.0 mi SSE 9.2 mph - N/A   Clear
3:52 PM 91.4 °F 89.9 °F 57.2 °F 31% 29.82 in 10.0 mi SSE 6.9 mph - N/A   Clear
4:12 PM 91.4 °F 89.9 °F 57.2 °F 31% 29.82 in 10.0 mi SSE 10.4 mph - N/A   Clear
4:33 PM 91.4 °F 89.9 °F 57.2 °F 31% 29.81 in 10.0 mi SSE 10.4 mph - N/A   Clear
4:52 PM 91.4 °F 89.9 °F 57.2 °F 31% 29.81 in 10.0 mi South 8.1 mph - N/A   Clear
5:11 PM 91.4 °F 89.9 °F 57.2 °F 31% 29.81 in 10.0 mi SSW 10.4 mph - N/A   Clear
5:32 PM 91.4 °F 89.4 °F 55.4 °F 29% 29.80 in 10.0 mi SSW 9.2 mph - N/A   Clear
5:53 PM 91.4 °F 89.9 °F 57.2 °F 31% 29.80 in 10.0 mi South 6.9 mph - N/A   Clear
6:12 PM 91.4 °F 89.9 °F 57.2 °F 31% 29.79 in 10.0 mi SSE 8.1 mph - N/A   Clear
6:32 PM 91.4 °F 90.7 °F 59.0 °F 34% 29.79 in 10.0 mi SSE 5.8 mph - N/A   Clear
6:53 PM 89.6 °F 89.5 °F 60.8 °F 38% 29.79 in 10.0 mi SE 3.5 mph - N/A   Clear
7:12 PM 87.8 °F 89.4 °F 64.4 °F 46% 29.78 in 10.0 mi ESE 4.6 mph - N/A   Clear
7:52 PM 84.2 °F 85.0 °F 62.6 °F 48% 29.78 in 10.0 mi SSE 6.9 mph - N/A   Clear
8:12 PM 82.4 °F 83.4 °F 62.6 °F 51% 29.78 in 10.0 mi SE 4.6 mph - N/A   Clear
8:53 PM 78.8 °F - 62.6 °F 57% 29.78 in 10.0 mi SSE 6.9 mph - N/A   Clear
9:12 PM 80.6 °F 81.8 °F 62.6 °F 54% 29.78 in 10.0 mi South 8.1 mph - N/A   Clear
9:32 PM 78.8 °F - 60.8 °F 54% 29.78 in 10.0 mi South 9.2 mph - N/A   Clear
10:12 PM 78.8 °F - 59.0 °F 51% 29.78 in 10.0 mi South 10.4 mph - N/A   Clear
10:32 PM 78.8 °F - 57.2 °F 47% 29.79 in 10.0 mi South 11.5 mph - N/A   Clear
11:12 PM 78.8 °F - 57.2 °F 47% 29.79 in 10.0 mi South 12.7 mph - N/A   Clear